FW8448 Weather Reports


Display with metric or nautical units.
time (UTC)temp
F
wind
direction
speed
MPH
gust
MPH
rain 1hr
in
rain 24hr
in
rain mn
in
humidity
%
barometer
mb
20260902161602 88 224 2.0 10.0 0.00 0.00 0.00 77 1018.5
20260902160059 87 0 0.0 0.0 0.00 0.00 0.00 77 1018.4
20260902154556 87 0 0.0 0.0 0.00 0.00 0.00 78 1018.6
20260902153115 86 0 0.0 0.0 0.00 0.00 0.00 80 1018.6
20260902151556 86 0 0.0 0.0 0.00 0.00 0.00 80 1018.5
20260902144618 84 0 0.0 9.0 0.00 0.00 0.00 81 1018.5
20260902143102 83 277 3.0 10.0 0.00 0.00 0.00 84 1018.6
20260902141602 82 295 4.0 9.0 0.00 0.00 0.00 85 1018.8
20260902140058 81 0 0.0 2.0 0.00 0.00 0.00 88 1018.8
20260902134602 79 0 0.0 0.0 0.00 0.00 0.00 90 1018.9
20260902133100 78 0 0.0 0.0 0.00 0.00 0.00 92 1018.9
20260902131602 76 0 0.0 0.0 0.00 0.00 0.00 94 1018.8
20260902130057 75 0 0.0 0.0 0.00 0.00 0.00 96 1018.8
20260902124610 73 0 0.0 0.0 0.00 0.00 0.00 97 1018.9
20260902123103 72 0 0.0 0.0 0.00 0.00 0.00 97 1018.9
20260902121611 71 0 0.0 0.0 0.00 0.00 0.00 97 1018.9
20260902120110 70 0 0.0 0.0 0.00 0.00 0.00 97 1018.8
20260902114617 70 0 0.0 0.0 0.00 0.00 0.00 97 1018.6
20260902113104 70 0 0.0 0.0 0.00 0.00 0.00 97 1018.6
20260902111601 70 0 0.0 0.0 0.00 0.00 0.00 97 1018.3
20260902104556 70 0 0.0 0.0 0.00 0.00 0.00 97 1018.0
20260902103117 70 0 0.0 0.0 0.00 0.00 0.00 97 1017.8
20260902101600 70 0 0.0 0.0 0.00 0.00 0.00 97 1017.7
20260902100052 70 0 0.0 0.0 0.00 0.00 0.00 96 1017.7
20260902094600 71 0 0.0 0.0 0.00 0.00 0.00 97 1017.7
20260902093109 71 0 0.0 0.0 0.00 0.00 0.00 97 1017.6
20260902091556 71 0 0.0 0.0 0.00 0.00 0.00 97 1017.6
20260902084556 71 0 0.0 0.0 0.00 0.00 0.00 97 1017.4
20260902083055 71 0 0.0 0.0 0.00 0.00 0.00 97 1017.2
20260902081554 71 0 0.0 0.0 0.00 0.00 0.00 97 1017.1
20260902080100 71 0 0.0 0.0 0.00 0.00 0.00 96 1017.1
20260902074613 71 0 0.0 0.0 0.00 0.00 0.00 97 1017.2
20260902073105 72 0 0.0 0.0 0.00 0.00 0.00 96 1017.2
20260902071556 72 0 0.0 0.0 0.00 0.00 0.00 96 1017.3
20260902070106 72 0 0.0 0.0 0.00 0.00 0.00 96 1017.2
20260902064602 72 0 0.0 0.0 0.00 0.00 0.00 96 1017.3
20260902063058 72 0 0.0 0.0 0.00 0.00 0.00 96 1017.3
20260902061557 73 0 0.0 0.0 0.00 0.00 0.00 96 1017.4
20260902060107 73 0 0.0 0.0 0.00 0.00 0.00 96 1017.4
20260902054559 73 0 0.0 0.0 0.00 0.00 0.00 96 1017.4
20260902053105 73 0 0.0 0.0 0.00 0.00 0.00 96 1017.4
20260902051558 73 0 0.0 0.0 0.00 0.00 0.00 95 1017.3
20260902044604 74 0 0.0 0.0 0.00 0.00 0.00 95 1017.2
20260902043102 74 0 0.0 0.0 0.00 0.00 0.00 95 1017.3
20260902041556 74 0 0.0 0.0 0.00 0.00 0.00 95 1017.3
20260902040105 75 0 0.0 0.0 0.00 0.00 0.00 95 1017.4
20260902034607 75 0 0.0 0.0 0.00 0.00 0.00 94 1017.4
20260902033105 76 0 0.0 0.0 0.00 0.00 0.00 94 1017.4
20260902031559 76 0 0.0 0.0 0.00 0.00 0.00 93 1017.3
20260902030057 77 0 0.0 0.0 0.00 0.00 0.00 92 1017.4
20260902024601 78 0 0.0 0.0 0.00 0.00 0.00 92 1017.5
20260902023054 78 0 0.0 0.0 0.00 0.00 0.00 91 1017.5
20260902021603 79 0 0.0 0.0 0.00 0.00 0.00 90 1017.4
20260902014602 80 0 0.0 0.0 0.00 0.00 0.00 88 1017.2
20260902013058 80 0 0.0 0.0 0.00 0.00 0.00 88 1017.1
20260902011557 81 0 0.0 0.0 0.00 0.00 0.00 86 1016.8
20260902010058 81 0 0.0 1.0 0.00 0.00 0.00 86 1016.7
20260902004558 82 0 0.0 2.0 0.00 0.00 0.00 85 1016.6
20260902003059 83 0 0.0 2.0 0.00 0.00 0.00 84 1016.6
20260902001602 85 0 0.0 1.0 0.00 0.00 0.00 82 1016.6
20260902000058 86 0 0.0 2.0 0.00 0.00 0.00 79 1016.8
20260901234610 88 0 0.0 2.0 0.00 0.00 0.00 77 1016.7
20260901233108 89 0 0.0 2.0 0.00 0.00 0.00 74 1016.8
20260901231600 90 202 0.0 6.0 0.00 0.00 0.00 72 1016.8
20260901230058 91 208 1.0 5.0 0.00 0.00 0.00 69 1016.8
20260901224602 91 259 2.0 7.0 0.00 0.00 0.00 69 1016.8
20260901223101 92 209 1.0 7.0 0.00 0.00 0.00 69 1016.8
20260901221607 92 199 1.0 7.0 0.00 0.00 0.00 69 1016.7
20260901220117 93 209 1.0 4.0 0.00 0.00 0.00 69 1016.6
20260901214558 93 240 0.0 5.0 0.00 0.00 0.00 67 1016.6
20260901213113 93 198 2.0 7.0 0.00 0.00 0.00 65 1016.8
20260901211600 93 181 1.0 8.0 0.00 0.00 0.00 67 1016.8
20260901210100 93 192 2.0 9.0 0.00 0.00 0.00 64 1016.9
20260901204605 92 271 6.0 11.0 0.00 0.00 0.00 66 1016.7
20260901203053 92 292 6.0 13.0 0.00 0.00 0.00 66 1016.8
20260901201602 93 234 2.0 15.0 0.00 0.00 0.00 65 1016.8
20260901200101 93 273 6.0 13.0 0.00 0.00 0.00 65 1017.0
20260901194605 93 273 2.0 6.0 0.00 0.00 0.00 66 1017.0
20260901193103 93 267 2.0 11.0 0.00 0.00 0.00 67 1017.1
20260901191553 92 225 2.0 13.0 0.00 0.00 0.00 66 1017.1
20260901190056 92 229 2.0 10.0 0.00 0.00 0.00 70 1017.3
20260901184559 92 194 4.0 9.0 0.00 0.00 0.00 69 1017.3
20260901183051 92 217 3.0 10.0 0.00 0.00 0.00 67 1017.5
20260901181602 91 205 2.0 8.0 0.00 0.00 0.00 70 1017.5
20260901180057 91 213 2.0 12.0 0.00 0.00 0.00 71 1017.7
20260901174554 90 360 2.0 11.0 0.00 0.00 0.00 71 1017.7
20260901173100 90 216 1.0 9.0 0.00 0.00 0.00 73 1017.7
20260901171557 89 212 3.0 12.0 0.00 0.00 0.00 74 1017.8
20260901170119 89 241 2.0 4.0 0.00 0.00 0.00 75 1018.0
20260901164608 88 0 0.0 0.0 0.00 0.00 0.00 75 1018.3
20260901163056 87 0 0.0 0.0 0.00 0.00 0.00 75 1018.5